EDT,Max TemperatureF,Mean TemperatureF,Min TemperatureF,Max Dew PointF,MeanDew PointF,Min DewpointF,Max Humidity, Mean Humidity, Min Humidity, Max Sea Level PressureIn, Mean Sea Level PressureIn, Min Sea Level PressureIn, Max VisibilityMiles, Mean VisibilityMiles, Min VisibilityMiles, Max Wind SpeedMPH, Mean Wind SpeedMPH, Max Gust SpeedMPH,PrecipitationIn, CloudCover, Events, WindDirDegrees
2013-5-1,82,75,68,73,69,66,100,85,69,30.01,29.97,29.93,10,8,1,18,6,23,0.85,7,Rain-Thunderstorm,54
2013-5-2,77,73,69,72,70,66,93,89,84,29.95,29.89,29.81,10,7,0,28,13,35,2.41,7,Fog-Rain-Thunderstorm,101
2013-5-3,84,76,67,70,68,65,97,76,55,29.82,29.74,29.68,10,9,0,35,8,40,0.54,6,Fog-Rain-Thunderstorm,206
2013-5-4,85,76,66,69,67,65,100,78,55,29.80,29.73,29.69,10,10,10,18,8,24,0.00,3,,283
2013-5-5,79,72,65,66,61,48,100,69,38,29.93,29.84,29.76,10,10,10,16,9,24,0.00,3,,289
2013-5-6,81,70,58,63,58,51,87,68,48,30.01,29.96,29.92,10,10,10,14,6,21,T,3,Rain,268
2013-5-7,82,71,60,60,57,53,84,63,42,30.06,30.01,29.98,10,10,10,17,9,28,0.00,2,,285
2013-5-8,83,72,60,63,59,53,97,67,37,30.14,30.09,30.04,10,10,10,13,5,17,0.00,2,,239
2013-5-9,85,75,64,71,66,59,81,68,54,30.14,30.10,30.07,10,10,10,17,8,23,0.00,2,,101
2013-5-10,86,81,75,73,71,67,85,70,55,30.13,30.08,30.03,10,10,10,20,9,24,0.01,4,Rain,141
2013-5-11,87,79,71,75,72,68,94,78,61,30.07,30.04,29.98,10,9,2,23,9,28,1.02,4,Rain-Thunderstorm,186
2013-5-12,87,79,70,74,71,66,100,81,61,30.06,30.00,29.94,10,10,2,18,7,24,0.44,4,Rain-Thunderstorm,191
2013-5-13,84,78,72,70,67,63,93,74,54,30.09,30.04,30.00,10,10,10,18,7,22,0.00,3,,314
2013-5-14,80,76,72,63,57,53,68,55,42,30.18,30.14,30.07,10,10,10,17,11,22,0.00,3,,42
2013-5-15,81,77,73,62,58,52,64,55,45,30.20,30.15,30.11,10,10,10,18,12,22,T,4,,87
2013-5-16,81,76,70,62,59,56,64,56,48,30.12,30.08,30.05,10,10,10,16,10,21,0.00,3,,108
2013-5-17,82,76,69,72,68,61,87,74,60,30.09,30.06,30.02,10,10,10,20,9,25,0.08,5,Tornado,77
2013-5-18,84,78,72,72,70,68,87,76,65,30.11,30.08,30.05,10,10,10,21,9,24,T,5,Rain,137
2013-5-19,84,79,74,69,68,66,84,71,58,30.10,30.06,30.01,10,10,10,18,9,29,0.00,4,,116
2013-5-20,80,74,68,73,70,66,93,84,74,30.09,30.05,29.99,10,6,0,23,7,32,6.77,6,Fog-Rain-Thunderstorm,123
2013-5-21,81,71,61,71,69,67,100,85,69,30.06,30.00,29.95,10,8,0,23,12,28,0.92,6,Fog-Rain-Thunderstorm,117
2013-5-22,82,78,73,73,70,68,94,84,74,29.97,29.93,29.91,10,9,0,20,7,23,0.16,5,Rain,147
2013-5-23,87,80,72,75,72,65,100,74,48,30.01,29.97,29.91,10,8,2,14,8,17,0.00,4,,235
2013-5-24,88,80,72,76,70,59,94,67,39,30.07,30.00,29.95,10,10,10,17,7,23,0.00,4,Rain-Thunderstorm,40
2013-5-25,83,79,75,72,65,62,87,69,51,30.17,30.12,30.05,10,10,10,20,12,25,0.00,4,,48
2013-5-26,83,78,73,66,62,58,74,63,51,30.19,30.15,30.12,10,10,10,18,12,24,0.00,5,,65
2013-5-27,84,80,75,70,67,60,74,67,60,30.17,30.12,30.08,10,10,10,21,15,25,0.00,5,,83
2013-5-28,83,78,73,73,71,69,87,78,69,30.12,30.09,30.06,10,9,0,28,17,35,0.21,7,Fog-Rain,110
2013-5-29,80,76,71,73,71,68,93,81,69,30.10,30.07,30.03,10,8,1,30,15,39,1.55,7,Rain-Thunderstorm,120
2013-5-30,81,77,73,74,71,67,88,75,62,30.09,30.06,30.02,10,9,1,31,21,38,0.14,6,Rain,112
2013-5-31,83,79,74,74,72,69,94,84,74,30.07,30.04,30.01,10,8,0,24,16,31,0.57,7,Fog-Rain,101